STARLINK-1076 (44959 NORAD) Tracking and Keplerian Element Data

This shows tracking and keplerian element data for the satellite.

Feedback or suggestion? Click here.




ElementValue
Catalog44959
NameSTARLINK-1076
Epoch Orbit176
Epoch Day189.91668981
Epoch Year2020
RAAN242.6973
Inclination52.9965
Eccentricity0.0001103
Argument of Perigee105.2573
Mean Anonmoly327.8452
Mean Motion15.05581448
Decay Rate2.854E-05
L11 44959U 20001AX 20189.91668981 .00002854 00000-0 21497-3 0 9997
L22 44959 52.9965 242.6973 0001103 105.2573 327.8452 15.05581448 1766

Live tracking and technical data element details for STARLINK-1076 (NORAD 44959). STARLINK-1076 can be tracked NOW for your location showing map with azimuth and elevation plus other details from your city location.

Track the satellite on the map from your city or location and see movement details for azimuth, elevation, latitude, longitude, range, height, and movement on the map or in text.







IsCatalogInMostPopularTable: catalog: 44959, numindb: 39
Update: records affected: 1



GetName: 44959 STARLINK-1076

Hit Count: updated at: Thu, 09 Jul 2020 00:32:21 GMT